Regional Weather Roundup
Issued by NWS

Home | Current Version | Previous Version | Text Only | Print | Product List | Glossary On
Versions: 1 2 3 4 5 6 7 8 9 10 11 12 13 14 15 16 17 18 19 20 21 22 23 24 25 26 27 28 29 30 31 32 33 34 35 36 37 38 39 40 41 42 43 44 45 46 47 48 49 50
000
ASUS43 KDTX 031910
RWRMI
MICHIGAN HOURLY REGIONAL WEATHER ROUNDUP
NATIONAL WEATHER SERVICE DETROIT/PONTIAC MI
300 PM EDT THU SEP 03 2015

NOTE: "FAIR" INDICATES FEW OR NO CLOUDS BELOW 12,000 FEET WITH NO
SIGNIFICANT WEATHER AND/OR OBSTRUCTION TO VISIBILITY.

MIZ047>049-052>055-059>063-066>070-074>076-081>083-032000-
SOUTHEAST LOWER MICHIGAN

CITY           SKY/WX    TMP DP  RH WIND       PRES   REMARKS
ADRIAN         MOSUNNY   89  66  46 W13G20    29.94F HX  91
ALMA           CLOUDY    75  72  88 S5        29.91F
ANN ARBOR      CLOUDY    84  69  60 NW5       29.93S
BAD AXE        LGT RAIN  68  67  97 S3        29.98F
CARO           LGT RAIN  68  67  97 E3        29.96F
DETROIT CITY   TSTM      72  64  76 NW8G18    29.97R
DETROIT        TSTM      77  66  68 N3        29.93S
FLINT          LGT RAIN  71  66  84 E9        29.96S
GROSSE ILE     MOSUNNY   79  73  83 SE9       29.91F
HILLSDALE      MOSUNNY   88  67  50 SW9G16    29.96S HX  91
HOWELL         CLOUDY    74  71  89 NE8       29.95S

CITY           SKY/WX    TMP DP  RH WIND       PRES   REMARKS
JACKSON        PTSUNNY   85  69  58 W10       29.93F
LAMBERTVILLE   PTSUNNY   89  69  51 SW9       29.94S HX  93
LANSING        CLOUDY    79  72  79 S5        29.92F
LAPEER         LGT RAIN  67  67  99 CALM      29.98S
MASON          CLOUDY    80  71  72 SE3       29.93F
MONROE         PTSUNNY   87  68  53 SW6       29.91F HX  90
MT. CLEMENS    TSTM      66  64  93 NE3       29.97F
PONTIAC        CLOUDY    70  68  93 E6        29.95F THUNDER
PORT HOPE        N/A     69  67  93 CALM      29.96F
PORT HURON     RAIN      68  66  94 NW9G22    29.99S
TRI CITIES     TSTM      68  66  93 E10       29.93F VSB 3/4
MIDLAND        RAIN      67  66  96 SE5       29.93F
TROY           LGT RAIN  70  67  92 N3        29.97F
SAGINAW HB     LGT RAIN  68  66  94 E10       29.92F
$$
MIZ043>046-050>051-056>058-064>065-071>073-077>080-032000-
SOUTHWEST LOWER MICHIGAN

CITY           SKY/WX    TMP DP  RH WIND       PRES   REMARKS
BATTLE CREEK   PTSUNNY   89  70  53 SW14      29.92F HX  94
BENTON HARBOR  SUNNY     86  69  56 SW17G23   29.93F HX  90
BIG RAPIDS     CLOUDY    77  72  83 CALM      29.90F
COLDWATER      MOSUNNY   89  66  46 W10       29.94F HX  91
FREMONT        CLOUDY    78  73  83 W7        29.89F
HOLLAND        MOSUNNY   78  72  81 W12       29.93S
GRAND RAPIDS   PTSUNNY   77  73  87 W9        29.90F
IONIA          LGT RAIN  77  74  92 SW10      29.90F
KALAMAZOO      MOSUNNY   88  69  53 SW14G21   29.92F HX  92
LUDINGTON      CLOUDY    71  67  89 W8        29.92S FOG
MARSHALL       PTSUNNY   86  70  58 SW12      29.92F HX  91
MOUNT PLEASANT HVY RAIN  70  68  93 CALM      29.92F
MUSKEGON       PTSUNNY   77  68  73 W9        29.91F
SOUTH HAVEN    MOSUNNY   84  67  56 SW13      29.92F
$$
MIZ016>042-032000-
NORTHERN LOWER MICHIGAN

CITY           SKY/WX    TMP DP  RH WIND       PRES   REMARKS
ALPENA         LGT RAIN  68  66  93 SE6       29.97R
BEAVER ISLAND  PTSUNNY   73  65  76 E7        29.96S
BELLAIRE       CLOUDY    71  65  82 NE8       29.93F
CADILLAC       CLOUDY    71  68  91 E6        29.92F
CHARLEVOIX     CLOUDY    72  65  79 E7        29.97S
FRANKFORT      CLOUDY    70  68  95 CALM      29.90S FOG
GAYLORD        CLOUDY    66  65  96 VRB3      29.96F
GRAYLING       CLOUDY    65  64  97 E8        29.96S FOG
HARBOR SPRINGS CLOUDY    72  66  82 E6        29.95S
HOUGHTON LAKE  CLOUDY    68  66  93 SE3       29.94F
MANISTEE       CLOUDY    68  64  88 W7        29.92S
OSCODA         LGT RAIN  70  68  93 CALM      29.96S
PELLSTON       CLOUDY    72  66  81 SE8       29.96R
ROGERS CITY    CLOUDY    69  66  92 NE3       29.96F FOG
TRAVERSE CITY  LGT RAIN  71  68  90 NE3       29.91F FOG
$$
MIZ007>008-015-032000-
EASTERN UPPER MICHIGAN

CITY           SKY/WX    TMP DP  RH WIND       PRES   REMARKS
KINROSS        PTSUNNY   77  63  61 E9        29.98S
MACKINAC ISLAN CLOUDY    72  63  73 E8G18     29.97R
NEWBERRY       MOSUNNY   81  63  54 E8        29.97S
S. S. MARIE    CLOUDY    79  63  57 SE5       29.97S
MUNISING         N/A     72  63  73 N7        29.97S
$$
MIZ004>006-011>014-085-032000-
CENTRAL UPPER MICHIGAN

CITY           SKY/WX    TMP DP  RH WIND       PRES   REMARKS
MANISTIQUE     MOSUNNY   78  65  65 E10       29.95S
ESCANABA       MOSUNNY   77  64  65 E7        29.93S
MENOMINEE      PTSUNNY   73  64  73 SE5       29.94F
SAWYER-GWINN   MOSUNNY   73  63  68 CALM      29.99F
$$
MIZ001>003-009>011-084-032000-
WESTERN UPPER MICHIGAN

CITY           SKY/WX    TMP DP  RH WIND       PRES   REMARKS
IRON MOUNTAIN  PTSUNNY   77  64  64 VRB5      29.98S
HOUGHTON       SUNNY     76  52  43 SE6       29.99S
COPPER HARBOR    N/A     65  59  81 E6        29.99R
IRONWOOD       SUNNY     81  57  44 E7        29.95S
$$

ABBREVIATIONS USED IN REMARKS
   TC - TEMPERATURE IN CELSIUS
  WCI - WIND CHILL INDEX
   HX - HEAT INDEX
  VSB - VISIBILITY




USA.gov is the U.S. government's official web portal to all federal, state and local government web resources and services.